Retour au catalogue

STARLINK-31734

ActifCommunicationsVLEO
NORAD 59534·PAYLOAD·🇺🇸 United States

Lancé Apr 18, 2024 depuis Cape Canaveral Space Force Station

Loading…

Prochains Passages (prochaines 24 heures)

TLE

FraisSource: CelesTrak SupGP

Époque: Sep 15, 2026, 02:22 UTC

1 59534C 24074A   26258.09909722  .00035755  00000+0  12952-2 0  2587
2 59534  43.0022 342.9471 0001513 271.9422 243.4660 15.27557131    19

Suivez STARLINK-31734 en temps réel avec AllMySat

Download on the App Store